"Timestamp","TZ","WindDir_Mean (deg)","WindSpd_Mean (km/h)","WindSpd_Min (km/h)","WindSpd_Max (km/h)","Temp_Mean (deg)","RH_Mean (%)","MSLP_Mean (hPa)","Rain_Acc (mm)","Rain_Intensity (mm/h)","Hail_Acc (hits/cm2)","Hail_Intensity (hits/cm2hr)","Solar_Mean (W/m2)"
2023/07/03 00:00:00.015,n,179,10.8,7.56,15.12,16,68.6,1028.92,0,0,0,0,0.033073
2023/07/03 00:01:00.001,n,228,3.96,2.52,5.04,16,68.5,1028.92,0,0,0,0,0.027008
2023/07/03 00:02:00.001,n,271,3.24,1.44,5.04,16,68.3,1028.92,0,0,0,0,0.029602
2023/07/03 00:03:00.001,n,270,3.24,2.88,3.6,16,68,1028.92,0,0,0,0,0.028725
2023/07/03 00:04:00.001,n,112,3.6,0.72,6.12,16,67.9,1028.82,0,0,0,0,0.030479
2023/07/03 00:05:00.002,n,105,1.44,0.36,4.68,15.9,67.7,1028.82,0,0,0,0,0.030479
2023/07/03 00:06:00.009,n,261,6.12,1.8,6.84,15.9,67,1028.72,0,0,0,0,0.032234
2023/07/03 00:07:00.011,n,168,9,6.48,13.32,15.9,66.9,1028.82,0,0,0,0,0.029602
2023/07/03 00:08:00.013,n,163,3.96,2.88,10.08,15.8,66.800004,1028.82,0,0,0,0,0.029602
2023/07/03 00:09:00.016,n,203,7.2,6.12,10.08,15.8,66.699996,1028.82,0,0,0,0,0.031357
2023/07/03 00:10:00.001,n,210,5.04,3.96,6.12,15.8,66.6,1028.92,0,0,0,0,0.032234
2023/07/03 00:11:00.001,n,205,2.88,2.52,3.6,15.8,66.699996,1028.92,0,0,0,0,0.028725
2023/07/03 00:12:00.002,n,231,1.44,0.72,2.52,15.8,66.699996,1028.92,0,0,0,0,0.027008
2023/07/03 00:13:00.007,n,181,2.16,1.44,3.96,15.8,66.5,1028.92,0,0,0,0,0.030479
2023/07/03 00:14:00.008,n,197,5.4,2.52,7.92,15.8,66.5,1028.82,0,0,0,0,0.030479
2023/07/03 00:15:00.009,n,186,7.92,5.76,11.52,15.8,66.4,1028.82,0,0,0,0,0.029602
2023/07/03 00:16:00.010,n,149,2.16,0.36,3.24,15.8,66.300004,1028.82,0,0,0,0,0.028725
2023/07/03 00:17:00.012,n,174,4.68,3.6,9,15.7,66.300004,1028.82,0,0,0,0,0.028725
2023/07/03 00:18:00.014,n,163,4.32,2.16,11.16,15.7,66.4,1028.82,0,0,0,0,0.029602
2023/07/03 00:19:00.001,n,177,10.8,7.2,14.04,15.7,66.300004,1028.72,0,0,0,0,0.030479
2023/07/03 00:20:00.001,n,173,12.6,10.8,14.4,15.7,66.199996,1028.72,0,0,0,0,0.026131
2023/07/03 00:21:00.004,n,173,8.64,4.32,11.52,15.7,66.199996,1028.72,0,0,0,0,0.030479
2023/07/03 00:22:00.005,n,170,9.36,6.12,12.6,15.7,66.199996,1028.82,0,0,0,0,0.030479
2023/07/03 00:23:00.009,n,272,3.24,2.88,3.6,15.7,66.199996,1028.82,0,0,0,0,0.027885
2023/07/03 00:24:00.002,n,164,3.96,0.72,5.76,15.7,66.800004,1028.82,0,0,0,0,0.028725
2023/07/03 00:25:00.002,n,153,1.8,0.36,5.04,15.7,66.5,1028.82,0,0,0,0,0.027885
2023/07/03 00:26:00.003,n,190,1.8,0.36,4.32,15.7,66.4,1028.92,0,0,0,0,0.027885
2023/07/03 00:27:00.002,n,252,2.52,2.16,2.52,15.6,66.199996,1028.82,0,0,0,0,0.027885
2023/07/03 00:28:00.002,n,183,4.32,3.24,7.2,15.6,66.199996,1028.82,0,0,0,0,0.029602
2023/07/03 00:29:00.001,n,169,6.48,3.6,8.64,15.6,66.300004,1028.82,0,0,0,0,0.029602
2023/07/03 00:30:00.001,n,173,9.36,6.12,11.52,15.6,66.1,1028.82,0,0,0,0,0.027008
2023/07/03 00:31:00.008,n,169,11.88,6.84,15.48,15.6,66.199996,1028.82,0,0,0,0,0.030479
2023/07/03 00:32:00.001,n,181,7.2,6.12,7.92,15.6,66.4,1028.82,0,0,0,0,0.030479
2023/07/03 00:33:00.001,n,178,9,5.04,11.52,15.6,66.199996,1028.82,0,0,0,0,0.029602
2023/07/03 00:34:00.011,n,161,9,6.84,13.68,15.6,66.300004,1028.82,0,0,0,0,0.030479
2023/07/03 00:35:00.013,n,131,5.4,4.68,6.48,15.6,66.199996,1028.92,0,0,0,0,0.028725
2023/07/03 00:36:00.015,n,200,3.96,2.52,8.28,15.6,66.300004,1028.92,0,0,0,0,0.032234
2023/07/03 00:37:00.002,n,136,4.68,3.24,5.4,15.6,66.4,1028.82,0,0,0,0,0.029602
2023/07/03 00:38:00.001,n,125,3.96,3.24,5.04,15.5,66.5,1028.82,0,0,0,0,0.030479
2023/07/03 00:39:00.001,n,175,7.92,5.4,11.88,15.5,66.699996,1028.92,0,0,0,0,0.030479
2023/07/03 00:40:00.001,n,158,5.4,1.8,8.64,15.5,66.800004,1028.92,0,0,0,0,0.033073
2023/07/03 00:41:00.005,n,131,15.48,12.96,16.919998,15.5,67.5,1028.82,0,0,0,0,0.031357
2023/07/03 00:42:00.006,n,168,5.04,2.88,11.16,15.5,67.5,1028.92,0,0,0,0,0.030479
2023/07/03 00:43:00.007,n,197,5.04,2.88,7.92,15.5,67.3,1028.92,0,0,0,0,0.030479
2023/07/03 00:44:00.010,n,180,6.48,3.96,11.52,15.5,67.5,1028.92,0,0,0,0,0.031357
2023/07/03 00:45:00.012,n,181,8.64,4.68,10.440002,15.6,67.7,1028.92,0,0,0,0,0.029602
2023/07/03 00:46:00.001,n,164,5.76,2.52,10.08,15.6,67.8,1028.92,0,0,0,0,0.030479
2023/07/03 00:47:00.001,n,220,5.76,4.32,7.2,15.6,67.9,1028.92,0,0,0,0,0.032234
2023/07/03 00:48:00.001,n,200,3.96,0.72,7.56,15.6,67.9,1029.02,0,0,0,0,0.033951
2023/07/03 00:49:00.001,n,233,5.4,5.04,6.48,15.6,67.9,1029.02,0,0,0,0,0.0383
2023/07/03 00:50:00.013,n,197,7.92,5.76,12.96,15.6,68,1029.02,0,0,0,0,0.040932
2023/07/03 00:51:00.001,n,226,6.12,4.32,7.56,15.6,68,1028.92,0,0,0,0,0.044441
2023/07/03 00:52:00.005,n,122,4.32,1.8,6.12,15.6,68,1028.92,0,0,0,0,0.047874
2023/07/03 00:53:00.012,n,142,6.12,5.4,6.84,15.6,68.1,1028.82,0,0,0,0,0.024338
2023/07/03 00:54:00.014,n,172,4.32,2.88,8.64,15.7,68.1,1028.82,0,0,0,0,0.028725
2023/07/03 00:55:00.001,n,137,3.24,2.88,3.6,15.7,68,1028.82,0,0,0,0,0.032196
2023/07/03 00:56:00.002,n,142,5.76,3.96,6.84,15.7,68.2,1028.72,0,0,0,0,0.0383
2023/07/03 00:57:00.001,n,197,5.76,4.68,6.12,15.7,68.3,1028.72,0,0,0,0,0.035706
2023/07/03 00:58:00.001,n,156,10.08,9,11.52,15.7,68.5,1028.62,0,0,0,0,0.040054
2023/07/03 00:59:00.002,n,167,8.64,5.04,13.68,15.6,68.6,1028.62,0,0,0,0,0.043526
2023/07/03 01:00:00.001,n,159,3.96,3.96,4.32,15.6,68.8,1028.62,0,0,0,0,0.041771
2023/07/03 01:01:00.011,n,156,12.6,10.08,15.48,15.6,69,1028.62,0,0,0,0,0.04528
2023/07/03 01:02:00.011,n,145,9.72,6.48,14.4,15.6,69.3,1028.62,0,0,0,0,0.04612
2023/07/03 01:03:00.011,n,151,10.08,0.72,12.6,15.6,69.4,1028.62,0,0,0,0,0.047874
2023/07/03 01:04:00.001,n,173,4.68,2.16,7.92,15.6,69.6,1028.62,0,0,0,0,0.023499
2023/07/03 01:05:00.007,n,149,5.04,3.6,6.48,15.6,69.6,1028.62,0,0,0,0,0.029564
2023/07/03 01:06:00.004,n,149,12.24,11.52,13.68,15.6,69.9,1028.62,0,0,0,0,0.03479
2023/07/03 01:07:00.009,n,138,2.88,1.08,5.4,15.6,70.2,1028.62,0,0,0,0,0.03479
2023/07/03 01:08:00.004,n,157,2.52,0.72,4.68,15.6,70.2,1028.72,0,0,0,0,0.035706
2023/07/03 01:09:00.007,n,137,2.16,1.44,5.76,15.6,70.3,1028.82,0,0,0,0,0.040932
2023/07/03 01:10:00.005,n,186,9,5.76,11.16,15.6,70.5,1028.82,0,0,0,0,0.040932
2023/07/03 01:11:00.002,n,174,4.68,2.16,6.48,15.5,70.6,1028.82,0,0,0,0,0.037422
2023/07/03 01:12:00.009,n,190,7.2,5.4,9.36,15.5,70.5,1028.82,0,0,0,0,0.040932
2023/07/03 01:13:00.001,n,154,8.64,7.2,9.36,15.5,70.5,1028.72,0,0,0,0,0.040932
2023/07/03 01:14:00.009,n,147,10.8,10.08,11.52,15.5,70.5,1028.62,0,0,0,0,0.040932
2023/07/03 01:15:00.006,n,134,8.64,6.48,9.36,15.5,70.5,1028.52,0,0,0,0,0.041771
2023/07/03 01:16:00.004,n,149,7.2,5.76,9.36,15.5,70.5,1028.52,0,0,0,0,0.042648
2023/07/03 01:17:00.005,n,151,6.84,5.04,11.52,15.5,70.5,1028.42,0,0,0,0,0.044365
2023/07/03 01:18:00.008,n,166,10.8,8.28,15.84,15.5,70.5,1028.42,0,0,0,0,0.044365
2023/07/03 01:19:00.018,n,138,10.08,9,10.8,15.5,70.6,1028.42,0,0,0,0,0.044365
2023/07/03 01:20:00.014,n,171,6.48,6.12,7.56,15.5,70.6,1028.32,0,0,0,0,0.04528
2023/07/03 01:21:00.005,n,165,7.2,5.4,11.16,15.5,70.6,1028.32,0,0,0,0,0.046997
2023/07/03 01:22:00.001,n,118,1.8,0,6.48,15.5,70.7,1028.32,0,0,0,0,0.046997
2023/07/03 01:23:00.011,n,136,8.64,7.2,10.08,15.5,70.7,1028.22,0,0,0,0,0.04612
2023/07/03 01:24:00.001,n,145,10.8,9.36,15.48,15.5,70.8,1028.22,0,0,0,0,0.046997
2023/07/03 01:25:00.006,n,148,11.88,9.72,11.88,15.5,70.8,1028.22,0,0,0,0,0.050507
2023/07/03 01:26:00.010,n,98,5.4,3.96,6.84,15.5,71,1028.12,0,0,0,0,0.051346
2023/07/03 01:27:00.005,n,122,10.440002,9.36,11.52,15.5,71.2,1028.12,0,0,0,0,0.048714
2023/07/03 01:28:00.001,n,128,6.84,5.4,9,15.5,71.3,1028.02,0,0,0,0,0.048714
2023/07/03 01:29:00.010,n,165,5.4,4.68,10.440002,15.5,71.6,1027.92,0,0,0,0,0.049629
2023/07/03 01:30:00.013,n,123,7.56,6.48,8.64,15.5,71.8,1027.82,0,0,0,0,0.049629
2023/07/03 01:31:00.001,n,100,3.96,1.8,5.76,15.5,71.9,1027.82,0,0,0,0,0.051346
2023/07/03 01:32:00.001,n,161,4.32,1.08,7.56,15.4,72,1027.82,0,0,0,0,0.050507
2023/07/03 01:33:00.001,n,121,6.48,5.4,7.56,15.4,72.3,1027.72,0,0,0,0,0.027847
2023/07/03 01:34:00.017,n,146,11.88,6.84,15.48,15.4,72.5,1027.72,0,0,0,0,0.027847
2023/07/03 01:35:00.002,n,162,12.6,7.92,16.2,15.4,72.6,1027.72,0,0,0,0,0.031357
2023/07/03 01:36:00.005,n,141,8.64,7.2,9.72,15.4,72.8,1027.72,0,0,0,0,0.032196
2023/07/03 01:37:00.002,n,131,7.92,6.84,9,15.3,72.9,1027.72,0,0,0,0,0.030479
2023/07/03 01:38:00.010,n,104,2.52,2.16,2.88,15.3,72.9,1027.72,0,0,0,0,0.033073
2023/07/03 01:39:00.007,n,47,2.88,1.44,4.32,15.3,72.9,1027.72,0,0,0,0,0.030479
2023/07/03 01:40:00.001,n,111,2.16,0.72,3.24,15.3,73,1027.72,0,0,0,0,0.033073
2023/07/03 01:41:00.002,n,171,2.16,1.08,4.68,15.3,73,1027.72,0,0,0,0,0.033951
2023/07/03 01:42:00.001,n,102,1.44,0.36,2.16,15.3,73.1,1027.72,0,0,0,0,0.033951
2023/07/03 01:43:00.001,n,112,7.2,5.76,9,15.3,73.1,1027.72,0,0,0,0,0.034828
2023/07/03 01:44:00.007,n,94,2.52,0.72,4.32,15.3,73.1,1027.72,0,0,0,0,0.033951
2023/07/03 01:45:00.006,n,346,2.16,0.36,5.4,15.3,73.1,1027.72,0,0,0,0,0.035706
2023/07/03 01:46:00.008,n,126,1.44,0.72,5.76,15.3,73.1,1027.72,0,0,0,0,0.034828
2023/07/03 01:47:00.010,n,205,4.68,3.6,5.4,15.3,73.1,1027.62,0,0,0,0,0.036545
2023/07/03 01:48:00.007,n,158,6.84,5.76,11.52,15.3,73,1027.62,0,0,0,0,0.033951
2023/07/03 01:49:00.002,n,152,6.84,4.68,14.4,15.3,73.1,1027.62,0,0,0,0,0.033073
2023/07/03 01:50:00.001,n,122,3.24,2.88,3.6,15.3,73.1,1027.62,0,0,0,0,0.037422
2023/07/03 01:51:00.002,n,156,3.6,2.88,8.28,15.3,73,1027.62,0,0,0,0,0.036545
2023/07/03 01:52:00.002,n,143,4.68,3.24,5.76,15.3,73.1,1027.62,0,0,0,0,0.033951
2023/07/03 01:53:00.007,n,157,4.68,3.6,8.28,15.3,73.1,1027.52,0,0,0,0,0.031357
2023/07/03 01:54:00.012,n,142,3.24,2.52,4.68,15.3,73.2,1027.52,0,0,0,0,0.036545
2023/07/03 01:55:00.002,n,177,5.4,3.96,7.92,15.3,73.2,1027.52,0,0,0,0,0.036545
2023/07/03 01:56:00.006,n,157,6.84,5.76,7.2,15.3,73.3,1027.52,0,0,0,0,0.039177
2023/07/03 01:57:00.008,n,162,7.2,6.84,7.92,15.3,73.3,1027.62,0,0,0,0,0.032196
2023/07/03 01:58:00.009,n,196,5.76,3.24,8.28,15.3,73.3,1027.62,0,0,0,0,0.036545
2023/07/03 01:59:00.004,n,191,7.92,5.4,10.8,15.3,73.2,1027.72,0,0,0,0,0.035706
2023/07/03 02:00:00.001,n,170,7.2,5.4,12.96,15.3,73.2,1027.72,0,0,0,0,0.037422
2023/07/03 02:01:00.005,n,191,9.36,7.2,12.6,15.3,73.2,1027.72,0,0,0,0,0.036545
2023/07/03 02:02:00.001,n,132,6.12,5.4,6.12,15.3,73,1027.72,0,0,0,0,0.036545
2023/07/03 02:03:00.003,n,184,4.32,2.16,7.92,15.3,72.9,1027.82,0,0,0,0,0.038338
2023/07/03 02:04:00.011,n,187,8.28,5.04,11.88,15.3,72.8,1027.72,0,0,0,0,0.036545
2023/07/03 02:05:00.005,n,157,12.6,10.8,16.919998,15.3,72.8,1027.72,0,0,0,0,0.033951
2023/07/03 02:06:00.008,n,152,8.64,7.92,9.36,15.4,72.6,1027.72,0,0,0,0,0.038338
2023/07/03 02:07:00.001,n,164,5.4,4.68,5.76,15.4,72.5,1027.72,0,0,0,0,0.037422
2023/07/03 02:08:00.001,n,143,8.28,7.56,9.36,15.4,72.3,1027.62,0,0,0,0,0.038338
2023/07/03 02:09:00.002,n,141,5.76,5.4,6.12,15.4,72.3,1027.62,0,0,0,0,0.033951
2023/07/03 02:10:00.002,n,155,7.2,6.84,7.92,15.4,72.2,1027.62,0,0,0,0,0.038338
2023/07/03 02:11:00.005,n,170,4.68,3.96,9,15.4,72.1,1027.62,0,0,0,0,0.036545
2023/07/03 02:12:00.010,n,233,2.16,1.08,4.68,15.4,72.1,1027.72,0,0,0,0,0.033073
2023/07/03 02:13:00.014,n,106,2.16,1.8,2.52,15.4,72.2,1027.72,0,0,0,0,0.038338
2023/07/03 02:14:00.030,n,155,4.32,3.6,7.92,15.4,72.1,1027.82,0,0,0,0,0.035706
2023/07/03 02:15:00.007,n,183,3.6,1.44,7.92,15.4,72.1,1027.82,0,0,0,0,0.036545
2023/07/03 02:16:00.014,n,179,1.44,1.08,3.24,15.4,72.1,1027.82,0,0,0,0,0.037422
2023/07/03 02:17:00.002,n,183,6.12,3.6,9.36,15.4,72.1,1027.82,0,0,0,0,0.035706
2023/07/03 02:18:00.001,n,181,3.6,2.16,7.92,15.4,72.1,1027.82,0,0,0,0,0.033951
2023/07/03 02:19:00.001,n,111,1.44,0.36,5.76,15.4,72.1,1027.82,0,0,0,0,0.036545
2023/07/03 02:20:00.001,n,191,3.24,2.16,6.12,15.4,72,1027.92,0,0,0,0,0.035706
2023/07/03 02:21:00.001,n,186,1.8,0.36,5.76,15.4,72.1,1027.92,0,0,0,0,0.038338
2023/07/03 02:22:00.019,n,152,2.16,0.36,6.48,15.4,72.1,1027.92,0,0,0,0,0.039177
2023/07/03 02:23:00.004,n,159,2.52,2.16,3.24,15.5,72,1027.92,0,0,0,0,0.038338
2023/07/03 02:24:00.011,n,197,1.8,0.72,6.12,15.5,71.9,1027.92,0,0,0,0,0.040054
2023/07/03 02:25:00.001,n,164,1.44,0.72,5.76,15.5,71.9,1027.92,0,0,0,0,0.035706
2023/07/03 02:26:00.005,n,167,4.32,3.6,9.36,15.5,71.8,1027.82,0,0,0,0,0.035706
2023/07/03 02:27:00.002,n,146,2.88,2.16,3.24,15.5,71.8,1027.82,0,0,0,0,0.039177
2023/07/03 02:28:00.002,n,181,1.44,0.36,3.96,15.5,71.8,1027.82,0,0,0,0,0.039177
2023/07/03 02:29:00.004,n,163,5.04,1.44,6.48,15.5,71.7,1027.82,0,0,0,0,0.037422
2023/07/03 02:30:00.010,n,170,3.96,3.96,4.32,15.5,71.7,1027.72,0,0,0,0,0.040054
2023/07/03 02:31:00.009,n,171,2.88,2.52,3.24,15.5,71.7,1027.72,0,0,0,0,0.036545
2023/07/03 02:32:00.014,n,184,4.68,2.88,7.92,15.5,71.8,1027.72,0,0,0,0,0.038338
2023/07/03 02:33:00.015,n,204,2.52,2.52,3.24,15.5,71.8,1027.62,0,0,0,0,0.040932
2023/07/03 02:34:00.002,n,269,3.24,2.16,4.32,15.5,72.2,1027.62,0,0,0,0,0.040932
2023/07/03 02:35:00.002,n,191,2.16,1.08,4.32,15.5,72.4,1027.62,0,0,0,0,0.041771
2023/07/03 02:36:00.002,n,159,4.32,1.08,6.12,15.5,72.3,1027.62,0,0,0,0,0.040932
2023/07/03 02:37:00.008,n,93,1.8,0.36,5.4,15.5,72,1027.72,0,0,0,0,0.041771
2023/07/03 02:38:00.001,n,111,3.6,0.72,5.76,15.5,71.9,1027.72,0,0,0,0,0.040932
2023/07/03 02:39:00.024,n,287,2.16,1.44,2.16,15.5,72,1027.72,0,0,0,0,0.040932
2023/07/03 02:40:00.009,n,181,2.52,2.16,2.88,15.5,71.9,1027.72,0,0,0,0,0.042648
2023/07/03 02:41:00.002,n,206,2.16,1.8,3.6,15.5,71.8,1027.72,0,0,0,0,0.04612
2023/07/03 02:42:00.011,n,253,3.24,1.08,3.6,15.5,71.9,1027.72,0,0,0,0,0.04528
2023/07/03 02:43:00.001,n,225,3.24,1.8,4.68,15.5,71.8,1027.62,0,0,0,0,0.04528
2023/07/03 02:44:00.004,n,259,4.32,0.72,5.4,15.5,71.7,1027.62,0,0,0,0,0.047913
2023/07/03 02:45:00.001,n,273,5.76,5.76,6.12,15.4,71.7,1027.62,0,0,0,0,0.04612
2023/07/03 02:46:00.003,n,259,3.96,0.36,4.32,15.4,71.8,1027.62,0,0,0,0,0.048752
2023/07/03 02:47:00.015,n,279,4.68,4.32,4.68,15.4,72.3,1027.52,0,0,0,0,0.04528
2023/07/03 02:48:00.002,n,197,1.8,1.08,4.32,15.4,72.3,1027.52,0,0,0,0,0.04528
2023/07/03 02:49:00.009,n,273,4.68,4.68,5.04,15.4,72.1,1027.62,0,0,0,0,0.025291
2023/07/03 02:50:00.009,n,266,3.6,3.6,3.96,15.4,72.1,1027.52,0,0,0,0,0.027885
2023/07/03 02:51:00.017,n,211,2.52,1.08,3.6,15.4,72.2,1027.52,0,0,0,0,0.02964
2023/07/03 02:52:00.001,n,203,2.52,1.8,3.6,15.3,72.3,1027.52,0,0,0,0,0.02964
2023/07/03 02:53:00.003,n,203,2.88,2.16,3.24,15.3,72.3,1027.52,0,0,0,0,0.026131
2023/07/03 02:54:00.001,n,188,2.88,2.16,3.6,15.3,72.4,1027.52,0,0,0,0,0.030479
2023/07/03 02:55:00.014,n,156,4.68,2.16,6.12,15.3,72.5,1027.52,0,0,0,0,0.027008
2023/07/03 02:56:00.002,n,158,1.44,1.44,1.8,15.3,72.4,1027.52,0,0,0,0,0.027885
2023/07/03 02:57:00.002,n,164,6.48,6.12,6.84,15.3,72.3,1027.52,0,0,0,0,0.028763
2023/07/03 02:58:00.007,n,175,2.88,1.08,4.32,15.3,72.3,1027.52,0,0,0,0,0.02964
2023/07/03 02:59:00.001,n,234,1.8,0.36,3.96,15.3,72.3,1027.52,0,0,0,0,0.033989
2023/07/03 03:00:00.018,n,186,3.24,1.08,4.68,15.3,72.5,1027.52,0,0,0,0,0.02964
2023/07/03 03:01:00.001,n,179,2.88,1.44,4.32,15.3,72.4,1027.52,0,0,0,0,0.033073
2023/07/03 03:02:00.001,n,166,2.88,1.8,3.96,15.3,72.2,1027.62,0,0,0,0,0.031357
2023/07/03 03:03:00.003,n,219,2.16,2.16,2.52,15.3,72.2,1027.62,0,0,0,0,0.031357
2023/07/03 03:04:00.005,n,213,2.52,1.08,3.6,15.3,72.1,1027.62,0,0,0,0,0.02964
2023/07/03 03:05:00.004,n,253,5.76,2.16,6.84,15.3,71.7,1027.72,0,0,0,0,0.032234
2023/07/03 03:06:00.022,n,238,3.24,1.08,4.68,15.3,71.9,1027.72,0,0,0,0,0.032234
2023/07/03 03:07:00.001,n,235,2.88,1.8,3.6,15.3,71.6,1027.82,0,0,0,0,0.030479
2023/07/03 03:08:00.002,n,281,5.04,4.68,5.4,15.3,72,1027.82,0,0,0,0,0.032234
2023/07/03 03:09:00.009,n,282,5.4,4.68,6.48,15.3,71.7,1027.82,0,0,0,0,0.032234
2023/07/03 03:10:00.002,n,278,8.28,7.2,9,15.3,71.6,1027.82,0,0,0,0,0.02964
2023/07/03 03:11:00.001,n,205,2.16,0.72,4.68,15.3,71.2,1027.82,0,0,0,0,0.02964
2023/07/03 03:12:00.001,n,271,5.4,5.04,6.12,15.3,71.1,1027.82,0,0,0,0,0.033073
2023/07/03 03:13:00.001,n,184,2.88,2.16,3.6,15.3,71.1,1027.82,0,0,0,0,0.033073
2023/07/03 03:14:00.010,n,237,2.16,2.16,2.52,15.3,71.1,1027.82,0,0,0,0,0.033073
2023/07/03 03:15:00.010,n,215,3.6,2.88,3.96,15.3,71.3,1027.72,0,0,0,0,0.033073
2023/07/03 03:16:00.004,n,278,4.32,3.6,5.76,15.3,70.9,1027.72,0,0,0,0,0.033989
2023/07/03 03:17:00.027,n,261,3.6,0.72,4.68,15.3,71.1,1027.82,0,0,0,0,0.030479
2023/07/03 03:18:00.019,n,237,3.24,1.08,5.04,15.3,70.9,1027.82,0,0,0,0,0.032234
2023/07/03 03:19:00.001,n,269,6.12,5.4,6.84,15.3,70.7,1027.82,0,0,0,0,0.033073
2023/07/03 03:20:00.002,n,238,3.24,2.52,4.68,15.3,70.8,1027.92,0,0,0,0,0.032234
2023/07/03 03:21:00.009,n,200,2.52,2.16,3.24,15.3,70.7,1027.92,0,0,0,0,0.032234
2023/07/03 03:22:00.003,n,247,2.16,1.8,2.52,15.3,70.9,1027.92,0,0,0,0,0.034866
2023/07/03 03:23:00.001,n,275,4.32,3.96,4.68,15.3,71.1,1028.02,0,0,0,0,0.033073
2023/07/03 03:24:00.012,n,267,4.32,1.08,4.68,15.3,70.7,1028.02,0,0,0,0,0.036583
2023/07/03 03:25:00.001,n,279,5.04,4.68,5.4,15.3,70.5,1028.02,0,0,0,0,0.033073
2023/07/03 03:26:00.010,n,266,6.48,5.4,7.56,15.3,70.4,1027.92,0,0,0,0,0.033073
2023/07/03 03:27:00.013,n,266,5.76,4.32,6.84,15.3,70.3,1027.92,0,0,0,0,0.033073
2023/07/03 03:28:00.001,n,279,5.04,4.32,5.76,15.3,70.3,1027.92,0,0,0,0,0.034866
2023/07/03 03:29:00.002,n,262,5.04,1.8,5.4,15.2,70.3,1027.92,0,0,0,0,0.033073
2023/07/03 03:30:00.001,n,258,10.440002,10.08,10.8,15.2,70,1027.92,0,0,0,0,0.034866
2023/07/03 03:31:00.009,n,269,6.12,5.76,7.2,15.2,70,1027.82,0,0,0,0,0.033073
2023/07/03 03:32:00.001,n,292,3.6,3.24,4.32,15.2,70.1,1027.82,0,0,0,0,0.034866
2023/07/03 03:33:00.001,n,272,3.96,3.24,4.68,15.2,70,1027.92,0,0,0,0,0.033073
2023/07/03 03:34:00.005,n,232,2.88,0.72,4.68,15.2,70,1027.92,0,0,0,0,0.033989
2023/07/03 03:35:00.013,n,270,8.28,6.84,9.72,15.2,69.9,1027.92,0,0,0,0,0.034866
2023/07/03 03:36:00.007,n,245,6.48,5.4,7.92,15.2,69.6,1027.82,0,0,0,0,0.035706
2023/07/03 03:37:00.002,n,283,4.32,3.96,4.68,15.2,69.5,1027.82,0,0,0,0,0.033989
2023/07/03 03:38:00.001,n,290,1.44,0.72,1.8,15.2,69.9,1027.82,0,0,0,0,0.031357
2023/07/03 03:39:00.001,n,216,2.16,1.44,4.32,15.2,69.9,1027.82,0,0,0,0,0.034866
2023/07/03 03:40:00.002,n,262,5.4,4.32,6.12,15.2,69.5,1027.82,0,0,0,0,0.032234
2023/07/03 03:41:00.001,n,286,5.04,4.32,5.4,15.1,69.4,1027.82,0,0,0,0,0.033073
2023/07/03 03:42:00.001,n,247,3.6,2.52,3.96,15.1,69.4,1027.82,0,0,0,0,0.033073
2023/07/03 03:43:00.007,n,251,3.96,1.44,5.04,15.1,69.4,1027.82,0,0,0,0,0.030479
2023/07/03 03:44:00.014,n,258,2.88,2.52,3.6,15.1,69.5,1027.92,0,0,0,0,0.031357
2023/07/03 03:45:00.018,n,244,4.32,2.16,6.48,15.1,69.4,1027.92,0,0,0,0,0.032234
2023/07/03 03:46:00.002,n,257,9,8.64,9.72,15.1,69.1,1027.82,0,0,0,0,0.031357
2023/07/03 03:47:00.005,n,282,5.04,3.96,6.48,15.1,69.2,1027.82,0,0,0,0,0.02964
2023/07/03 03:48:00.003,n,249,3.96,0.72,6.12,15.1,69.3,1027.92,0,0,0,0,0.033073
2023/07/03 03:49:00.002,n,244,3.6,2.88,5.76,15.1,69.3,1027.82,0,0,0,0,0.027885
2023/07/03 03:50:00.003,n,252,6.12,5.04,7.2,15.1,69.3,1027.82,0,0,0,0,0.033989
2023/07/03 03:51:00.004,n,191,4.68,2.88,7.2,15.1,69.3,1027.82,0,0,0,0,0.02964
2023/07/03 03:52:00.008,n,277,6.48,5.76,7.2,15.1,69.2,1027.82,0,0,0,0,0.030479
2023/07/03 03:53:00.015,n,253,2.52,2.16,3.24,15.1,69.3,1027.72,0,0,0,0,0.030479
2023/07/03 03:54:00.006,n,302,3.96,2.88,4.68,15.1,70.2,1027.72,0,0,0,0,0.031357
2023/07/03 03:55:00.001,n,75,2.88,0.72,6.84,15.1,69.7,1027.72,0,0,0,0,0.027885
2023/07/03 03:56:00.001,n,234,2.52,0.72,3.24,15.1,69.6,1027.72,0,0,0,0,0.030479
2023/07/03 03:57:00.001,n,339,3.96,2.52,6.84,15.1,69.4,1027.72,0,0,0,0,0.02964
2023/07/03 03:58:00.006,n,141,3.6,2.52,3.96,15.1,69.3,1027.72,0,0,0,0,0.028763
2023/07/03 03:59:00.001,n,279,1.8,1.8,2.52,15.1,69.3,1027.72,0,0,0,0,0.032234
2023/07/03 04:00:00.006,n,265,9.72,9,10.08,15.1,69.2,1027.72,0,0,0,0,0.02964
2023/07/03 04:01:00.005,n,291,2.16,1.44,3.6,15.1,69.3,1027.82,0,0,0,0,0.030479
2023/07/03 04:02:00.009,n,199,2.88,2.16,5.76,15.1,69.5,1027.82,0,0,0,0,0.02964
2023/07/03 04:03:00.014,n,72,1.08,0.36,5.04,15.1,69.4,1027.82,0,0,0,0,0.027885
2023/07/03 04:04:00.003,n,284,3.96,3.24,4.68,15.1,69.4,1027.82,0,0,0,0,0.028763
2023/07/03 04:05:00.001,n,291,5.4,5.04,6.12,15.1,69.7,1027.82,0,0,0,0,0.02964
2023/07/03 04:06:00.001,n,246,4.32,1.08,5.4,15.1,69.6,1027.72,0,0,0,0,0.032234
2023/07/03 04:07:00.002,n,259,9.72,9,10.08,15.1,69.1,1027.72,0,0,0,0,0.032234
2023/07/03 04:08:00.002,n,198,2.88,2.52,3.6,15.1,69.3,1027.72,0,0,0,0,0.028763
2023/07/03 04:09:00.001,n,253,2.52,2.16,3.24,15.1,69.4,1027.82,0,0,0,0,0.027008
2023/07/03 04:10:00.008,n,194,2.52,0.72,5.04,15,69.6,1027.82,0,0,0,0,0.027885
2023/07/03 04:11:00.010,n,266,4.32,1.44,6.12,15,69.5,1027.82,0,0,0,0,0.031357
2023/07/03 04:12:00.021,n,256,5.04,3.96,5.4,15,69.5,1027.82,0,0,0,0,0.026131
2023/07/03 04:13:00.002,n,181,2.52,2.16,3.6,15,69.5,1027.72,0,0,0,0,0.031357
2023/07/03 04:14:00.002,n,201,3.96,2.88,5.04,15,69.5,1027.72,0,0,0,0,0.028763
2023/07/03 04:15:00.255,n,279,4.32,3.6,4.68,15,70,1027.72,0,0,0,0,0.028763
2023/07/03 04:16:00.004,n,229,5.04,4.32,6.48,15,69.6,1027.62,0,0,0,0,0.027008
2023/07/03 04:17:00.001,n,258,3.24,1.08,3.6,15,69.6,1027.62,0,0,0,0,0.027885
2023/07/03 04:18:00.004,n,171,1.8,1.08,3.24,15,69.7,1027.62,0,0,0,0,0.027008
2023/07/03 04:19:00.005,n,310,0.72,0,3.6,15,69.7,1027.62,0,0,0,0,0.031357
2023/07/03 04:20:00.010,n,185,3.6,2.16,7.2,15,69.7,1027.52,0,0,0,0,0.031357
2023/07/03 04:21:00.011,n,175,6.48,3.6,8.28,15,69.7,1027.62,0,0,0,0,0.02964
2023/07/03 04:22:00.001,n,216,3.6,2.16,7.2,15,69.7,1027.62,0,0,0,0,0.027008
2023/07/03 04:23:00.002,n,225,2.52,2.16,2.88,15,69.8,1027.52,0,0,0,0,0.030479
2023/07/03 04:24:00.006,n,269,5.76,1.44,6.84,15,69.9,1027.52,0,0,0,0,0.027008
2023/07/03 04:25:00.001,n,126,2.52,2.16,2.52,15,70.4,1027.52,0,0,0,0,0.027885
2023/07/03 04:26:00.002,n,13,4.68,1.44,8.28,15,70.1,1027.52,0,0,0,0,0.027885
2023/07/03 04:27:00.012,n,159,9.36,6.12,12.96,15,69.9,1027.62,0,0,0,0,0.022659
2023/07/03 04:28:00.008,n,160,1.8,1.08,6.48,15,70,1027.62,0,0,0,0,0.028763
2023/07/03 04:29:00.015,n,241,1.44,0.36,4.32,14.9,70,1027.62,0,0,0,0,0.022659
2023/07/03 04:30:00.005,n,162,2.16,0.72,5.4,14.9,70.2,1027.72,0,0,0,0,0.026131
2023/07/03 04:31:00.001,n,50,3.24,0,4.32,14.9,70.3,1027.72,0,0,0,0,0.027885
2023/07/03 04:32:00.001,n,202,3.24,0.72,5.04,14.9,70.4,1027.72,0,0,0,0,0.026131
2023/07/03 04:33:00.001,n,114,1.08,0.72,1.08,14.9,70.5,1027.72,0,0,0,0,0.024414
2023/07/03 04:34:00.014,n,340,0.72,0,4.32,14.9,70.5,1027.72,0,0,0,0,0.020905
2023/07/03 04:35:00.005,n,180,3.24,0.72,6.12,14.9,70.6,1027.62,0,0,0,0,0.020905
2023/07/03 04:36:00.010,n,170,7.56,3.24,8.28,14.9,70.6,1027.62,0,0,0,0,0.018311
2023/07/03 04:37:00.009,n,139,5.76,3.6,6.84,14.8,70.7,1027.62,0,0,0,0,0.024414
2023/07/03 04:38:00.014,n,172,5.76,2.88,9.72,14.8,70.8,1027.62,0,0,0,0,0.021782
2023/07/03 04:39:00.011,n,299,2.16,1.08,6.48,14.8,71.1,1027.62,0,0,0,0,0.024414
2023/07/03 04:40:00.005,n,200,0.72,0,5.4,14.8,71.1,1027.62,0,0,0,0,0.022659
2023/07/03 04:41:00.008,n,150,4.32,3.24,9.72,14.8,71,1027.72,0,0,0,0,0.019188
2023/07/03 04:42:00.004,n,152,3.96,0.36,6.12,14.8,71,1027.72,0,0,0,0,0.020065
2023/07/03 04:43:00.002,n,162,3.24,2.16,5.04,14.8,71.1,1027.72,0,0,0,0,0.019188
2023/07/03 04:44:00.010,n,150,4.68,1.44,6.48,14.7,71.2,1027.72,0,0,0,0,0.018311
2023/07/03 04:45:00.001,n,178,5.04,2.52,8.64,14.7,71.4,1027.72,0,0,0,0,0.019188
2023/07/03 04:46:00.010,n,164,3.6,1.08,7.56,14.7,71.4,1027.72,0,0,0,0,0.023499
2023/07/03 04:47:00.011,n,161,4.68,2.52,7.92,14.7,71.4,1027.72,0,0,0,0,0.026932
2023/07/03 04:48:00.003,n,164,5.76,1.8,7.2,14.7,71.4,1027.72,0,0,0,0,0.027847
2023/07/03 04:49:00.002,n,182,7.2,3.6,9,14.7,71.5,1027.72,0,0,0,0,0.024338
2023/07/03 04:50:00.001,n,190,6.12,4.68,8.28,14.7,71.6,1027.72,0,0,0,0,0.026932
2023/07/03 04:51:00.001,n,156,4.68,2.88,8.64,14.7,71.6,1027.72,0,0,0,0,0.026932
2023/07/03 04:52:00.001,n,173,5.4,4.32,10.08,14.7,71.6,1027.72,0,0,0,0,0.028687
2023/07/03 04:53:00.003,n,175,6.12,2.52,7.92,14.7,71.6,1027.72,0,0,0,0,0.025215